Windsor Locks, CT

10:44 AM EST on December 17, 2017 (GMT -0500)
Bradley International

Weather History for KBDL - February, 2014

Change the Weather History Date:

Thursday, February 13, 2014

  Actual Average Record
Temperature  
Mean Temperature 26 °F 29 °F  
Max Temperature 33 °F 38 °F 59 °F (1937)
Min Temperature 18 °F 21 °F -7 °F (1967)
Degree Days  
Heating Degree Days 39 36  
Month to date heating degree days 545 480  
Since 1 July heating degree days 4091 3930  
Cooling Degree Days 0 0  
Month to date cooling degree days 0 0  
Year to date cooling degree days 0 0  
Moisture  
Dew Point 22 °F    
Average Humidity 72    
Maximum Humidity 92    
Minimum Humidity 51    
Precipitation  
Precipitation 2.11 in 0.10 in 2.53 in (2008)
Month to date precipitation 3.73 1.32  
Year to date precipitation 7.14 4.55  
Snow  
Snow 7.40 in 0.40 in 7.90 in (1943)
Month to date snowfall 20.6 5.6  
Since 1 July snowfall 43.6 27.3  
Snow Depth 10.00 in    
Sea Level Pressure  
Sea Level Pressure 29.75 in    
Wind  
Wind Speed 13 mph (North)    
Max Wind Speed 26 mph    
Max Gust Speed 34 mph    
Visibility 3 miles    
Events Fog , Rain , Snow    
T = Trace of Precipitation, MM = Missing Value Source: NWS Daily Summary

Daily Weather History Graph

Daily Weather History Graph

Search for Another Location

Airport or City:

Trip Planner

Search our weather history database for the weather conditions in past years. The results will help you decide how hot, cold, wet, or windy it might be!

Date:

Astronomy

Feb. 13, 2014 Rise Set
Actual Time 6:49 AM EST 5:21 PM EST
Civil Twilight 6:20 AM EST 5:49 PM EST
Nautical Twilight 5:47 AM EST 6:22 PM EST
Astronomical Twilight 5:15 AM EST 6:55 PM EST
Moon 4:27 PM EST (2/13) 5:41 AM EST (2/13)
Length of Visible Light 11h 29m
Length of Day
10h 31m
Waxing Gibbous, 98% of the Moon is Illuminated
Feb 13
Waxing Gibbous
Feb 14
Full
Feb 22
Last Quarter
Mar 1
New
Mar 8
First Quarter

Hourly Weather History & Observations

Time (EST) Temp. Windchill Dew Point Humidity Pressure Visibility Wind Dir Wind Speed Gust Speed Precip Events Conditions
12:51 AM 19.0 °F 11.1 °F 5.0 °F 54% 30.35 in 10.0 mi North 5.8 mph - N/A   Overcast
1:51 AM 19.0 °F 11.1 °F 7.0 °F 59% 30.32 in 10.0 mi NNE 5.8 mph - N/A   Overcast
2:52 AM 19.0 °F 9.0 °F 9.0 °F 65% 30.30 in 10.0 mi North 8.1 mph - N/A   Overcast
3:48 AM 17.6 °F 6.4 °F 12.2 °F 79% 30.26 in 2.0 mi North 9.2 mph - 0.01 in Snow Light Snow
3:51 AM 18.0 °F 7.7 °F 12.9 °F 81% 30.26 in 2.0 mi North 8.1 mph - 0.01 in Snow Light Snow
4:25 AM 19.0 °F 8.2 °F 14.0 °F 81% 30.25 in 1.8 mi North 9.2 mph - 0.01 in Snow Light Snow
4:51 AM 19.0 °F 8.2 °F 15.1 °F 85% 30.25 in 1.8 mi North 9.2 mph - 0.02 in Snow Light Snow
5:52 AM 19.0 °F 9.0 °F 15.1 °F 85% 30.22 in 2.0 mi North 8.1 mph - 0.02 in Snow Light Snow
6:17 AM 19.0 °F 7.5 °F 16.0 °F 88% 30.22 in 2.0 mi North 10.4 mph - 0.03 in Snow Light Snow
6:51 AM 19.9 °F 9.3 °F 16.0 °F 85% 30.18 in 2.0 mi North 9.2 mph - 0.05 in Snow Light Snow
7:37 AM 19.9 °F 10.1 °F 17.1 °F 89% 30.16 in 1.5 mi North 8.1 mph - 0.01 in Snow Light Snow
7:51 AM 19.9 °F 8.6 °F 17.1 °F 89% 30.14 in 1.0 mi North 10.4 mph - 0.02 in Snow Light Snow
8:51 AM 21.9 °F 11.0 °F 18.0 °F 85% 30.10 in 1.0 mi North 10.4 mph - 0.07 in Snow Light Snow
9:07 AM 21.9 °F 10.4 °F 19.0 °F 89% 30.09 in 0.8 mi North 11.5 mph - 0.01 in Snow Light Snow
9:51 AM 23.0 °F 11.1 °F 19.9 °F 88% 30.05 in 0.8 mi North 12.7 mph - 0.04 in Snow Light Snow
10:51 AM 25.0 °F 12.2 °F 21.9 °F 88% 29.96 in 0.8 mi North 16.1 mph - 0.73 in Snow Light Snow
11:03 AM 25.0 °F 12.2 °F 21.9 °F 88% 29.94 in 0.8 mi North 16.1 mph - 0.39 in Snow Light Snow
11:24 AM 25.0 °F 12.6 °F 23.0 °F 92% 29.92 in 0.2 mi North 15.0 mph - 1.06 in Fog , Snow Snow
11:51 AM 26.1 °F 12.7 °F 23.0 °F 88% 29.88 in 0.2 mi North 18.4 mph - N/A Fog , Snow Heavy Snow
12:22 PM 26.1 °F 12.7 °F 24.1 °F 92% 29.82 in 0.2 mi North 18.4 mph 26.5 mph N/A Fog , Snow Heavy Snow
12:32 PM 26.1 °F 13.1 °F 24.1 °F 92% 29.81 in 0.2 mi North 17.3 mph 28.8 mph N/A Fog , Snow Heavy Snow
12:51 PM 26.1 °F 14.0 °F 24.1 °F 92% 29.81 in 0.2 mi North 15.0 mph - N/A Fog , Snow Heavy Snow
1:07 PM 26.1 °F 12.7 °F 24.1 °F 92% 29.76 in 0.2 mi North 18.4 mph 26.5 mph N/A Fog , Snow Heavy Snow
1:17 PM 27.0 °F 13.9 °F 24.1 °F 89% 29.75 in 0.2 mi North 18.4 mph 26.5 mph N/A Fog , Snow Heavy Snow
1:39 PM 27.0 °F 13.9 °F 24.1 °F 89% 29.70 in 0.2 mi North 18.4 mph 27.6 mph N/A Fog , Snow Heavy Snow
1:51 PM 27.0 °F 12.5 °F 24.1 °F 89% 29.69 in 0.2 mi North 23.0 mph 29.9 mph N/A Fog , Snow Heavy Snow
2:26 PM 27.0 °F 12.5 °F 24.1 °F 89% 29.64 in 0.5 mi North 23.0 mph - N/A Snow Light Snow
2:51 PM 27.0 °F 12.5 °F 24.1 °F 89% 29.62 in 0.5 mi North 23.0 mph 32.2 mph N/A Snow Light Snow
3:02 PM 28.0 °F 14.3 °F 25.0 °F 88% 29.59 in 0.5 mi North 21.9 mph - N/A Snow Light Snow
3:14 PM 28.0 °F 14.9 °F 25.0 °F 88% 29.57 in 1.8 mi North 19.6 mph 31.1 mph N/A Snow Light Snow
3:26 PM 28.0 °F 14.9 °F 25.0 °F 88% 29.56 in 1.8 mi North 19.6 mph - N/A Snow Light Snow
3:51 PM 28.9 °F 16.1 °F 25.0 °F 85% 29.54 in 2.0 mi North 19.6 mph 31.1 mph N/A Snow Light Snow
4:48 PM 28.4 °F 15.1 °F 26.6 °F 93% 29.48 in 2.0 mi North 20.7 mph 31.1 mph N/A Rain Light Freezing Rain
4:51 PM 28.9 °F 15.8 °F 26.1 °F 89% 29.49 in 2.0 mi North 20.7 mph 31.1 mph N/A Rain Light Freezing Rain
5:40 PM 28.9 °F 15.8 °F 26.1 °F 89% 29.44 in 4.0 mi North 20.7 mph 27.6 mph N/A Rain Light Freezing Rain
5:51 PM 28.9 °F 16.5 °F 26.1 °F 89% 29.43 in 5.0 mi North 18.4 mph - N/A Rain Light Freezing Rain
6:24 PM 30.0 °F 17.2 °F 27.0 °F 88% 29.41 in 5.0 mi North 20.7 mph 27.6 mph N/A   Light Freezing Drizzle
6:51 PM 30.0 °F 18.3 °F 27.0 °F 88% 29.38 in 6.0 mi North 17.3 mph 26.5 mph N/A   Light Freezing Drizzle
7:16 PM 30.0 °F 18.7 °F 27.0 °F 88% 29.35 in 9.0 mi North 16.1 mph - N/A   Overcast
7:51 PM 30.0 °F 18.7 °F 27.0 °F 88% 29.32 in 8.0 mi North 16.1 mph - N/A   Overcast
8:21 PM 30.9 °F 19.1 °F 28.0 °F 89% 29.28 in 6.0 mi North 18.4 mph - N/A Rain Light Freezing Rain
8:27 PM 30.9 °F 18.7 °F 28.0 °F 89% 29.26 in 7.0 mi North 19.6 mph - N/A   Light Freezing Drizzle
8:51 PM 30.9 °F 19.4 °F 28.0 °F 89% 29.25 in 7.0 mi North 17.3 mph - N/A   Light Freezing Drizzle
9:51 PM 30.9 °F 18.1 °F 28.0 °F 89% 29.13 in 10.0 mi North 21.9 mph 27.6 mph N/A   Light Freezing Drizzle
10:19 PM 32.0 °F 18.6 °F 28.0 °F 85% 29.08 in 7.0 mi North 25.3 mph - N/A Rain Light Freezing Rain
10:51 PM 32.0 °F 21.2 °F 28.9 °F 88% 29.07 in 5.0 mi North 16.1 mph 32.2 mph N/A Rain Light Freezing Rain
11:24 PM 32.0 °F 20.5 °F 28.9 °F 88% 29.02 in 6.0 mi North 18.4 mph 27.6 mph N/A Rain Light Freezing Rain
11:51 PM 33.1 °F 27.7 °F 30.0 °F 89% 29.11 in 5.0 mi Variable 5.8 mph - N/A Rain Light Freezing Rain